Weather History for Chillicothe, MO

Change the Weather History Date:

Tuesday, August 21, 2012

  Actual Average (KIRK) Record (KIRK)
Temperature  
Mean Temperature 78 °F 73 °F  
Max Temperature 93 °F 84 °F 103 °F (1936)
Min Temperature 62 °F 63 °F 43 °F (1950)
Cooling Degree Days 12 8  
Month to date cooling degree days 203  
Year to date cooling degree days 770  
Since 1 June cooling degree days 708  
Growing Degree Days 28 (Base 50)    
Moisture  
Dew Point 50 °F    
Average Humidity 44    
Maximum Humidity 65    
Minimum Humidity 21    
Precipitation  
Precipitation 0.00 in 0.12 in 1.68 in (1964)
Month to date precipitation 2.41  
Year to date precipitation 26.00  
Sea Level Pressure  
Sea Level Pressure 29.99 in    
Wind  
Wind Speed 3 mph (ENE)    
Max Wind Speed 8 mph    
Max Gust Speed -    
T = Trace of Precipitation, MM = Missing Value Source: NWS Daily Summary

Daily Weather History Graph

Daily Weather History Graph

Search for Another Location

Airport:

Trip Planner

Search our weather history database for the weather conditions in past years. The results will help you decide how hot, cold, wet, or windy it might be!

Date:

Astronomy

Aug. 21, 2012 Rise Set
Actual Time 6:32 AM CDT 8:01 PM CDT
Civil Twilight 6:03 AM CDT 8:29 PM CDT
Nautical Twilight 5:29 AM CDT 9:03 PM CDT
Astronomical Twilight 4:53 AM CDT 9:39 PM CDT
Moon 11:03 AM CDT (8/21) 10:02 PM CDT (8/21)
Length of Visible Light 14h 25m
Length of Day
13h 29m
Waxing Crescent, 19% of the Moon is Illuminated
Aug 21
Waxing Crescent
Aug 24
First Quarter
Aug 31
Full
Sep 8
Last Quarter
Sep 15
New

Hourly Weather History & Observations

Time (CDT) Temp. Dew Point Humidity Pressure Visibility Wind Dir Wind Speed Gust Speed Precip Events Conditions
12:52 AM 62.1 °F 50.0 °F 65% 29.97 in - Calm Calm - N/A   Unknown
1:52 AM 63.0 °F 51.1 °F 65% 29.99 in - North 3.5 mph - N/A   Unknown
2:52 AM 64.0 °F 51.1 °F 63% 29.99 in - Calm Calm - N/A   Unknown
3:52 AM 66.0 °F 51.1 °F 59% 29.99 in - Calm Calm - N/A   Unknown
4:52 AM 66.0 °F 51.1 °F 59% 29.99 in - NE 3.5 mph - N/A   Unknown
5:52 AM 64.9 °F 51.1 °F 61% 30.00 in - Variable 3.5 mph - N/A   Unknown
6:52 AM 64.0 °F 52.0 °F 65% 30.01 in - Variable 3.5 mph - N/A   Unknown
7:52 AM 64.9 °F 52.0 °F 63% 30.02 in - Calm Calm - N/A   Unknown
8:52 AM 71.1 °F 52.0 °F 51% 30.04 in - North - - N/A   Unknown
9:52 AM 75.0 °F 52.0 °F 44% 30.04 in - SE 8.1 mph - N/A   Unknown
10:52 AM 79.0 °F 51.1 °F 38% 30.03 in - ESE 6.9 mph - N/A   Unknown
11:52 AM 82.9 °F 50.0 °F 32% 30.02 in - Variable 6.9 mph - N/A   Unknown
12:52 PM 86.0 °F 48.9 °F 28% 30.01 in - Variable 5.8 mph - N/A   Unknown
1:52 PM 87.1 °F 48.0 °F 26% 30.01 in - Calm Calm - N/A   Unknown
2:52 PM 91.0 °F 48.0 °F 23% 29.97 in - Variable 4.6 mph - N/A   Unknown
3:52 PM 93.0 °F 48.0 °F 21% 29.96 in - NNE 8.1 mph - N/A   Unknown
4:52 PM 91.9 °F 46.9 °F 21% 29.96 in - ENE 6.9 mph - N/A   Unknown
5:52 PM 91.0 °F 46.9 °F 22% 29.95 in - Variable 4.6 mph - N/A   Unknown
6:52 PM 90.0 °F 46.9 °F 23% 29.96 in - NE 4.6 mph - N/A   Unknown
7:52 PM 81.0 °F 52.0 °F 36% 29.97 in - Calm Calm - N/A   Unknown
8:52 PM 73.0 °F 55.0 °F 53% 29.99 in - Calm Calm - N/A   Unknown
9:52 PM 69.1 °F 53.1 °F 57% 30.00 in - Calm Calm - N/A   Unknown
10:52 PM 75.0 °F 48.9 °F 40% 29.99 in - ESE 3.5 mph - N/A   Unknown
11:52 PM 73.0 °F 48.9 °F 42% 29.99 in - ESE 3.5 mph - N/A   Unknown